ASTROCAST-0203 (48955 NORAD) Tracking and Keplerian Element Data

This shows tracking and keplerian element data for the satellite.

Feedback or suggestion? Click here.




ElementValue
Catalog48955
NameASTROCAST-0203
Epoch Orbit1384
Epoch Day268.3147676
Epoch Year2021
RAAN35.9385
Inclination97.5216
Eccentricity0.0014496
Argument of Perigee301.2912
Mean Anonmoly58.6899
Mean Motion15.13895158
Decay Rate1.073E-05
L11 48955U 21059CE 21268.31476760 .00001073 00000-0 62812-4 0 9995
L22 48955 97.5216 35.9385 0014496 301.2912 58.6899 15.13895158 13845

Live tracking and technical data element details for ASTROCAST-0203 (NORAD 48955). ASTROCAST-0203 can be tracked NOW for your location showing map with azimuth and elevation plus other details from your city location.

Track the satellite on the map from your city or location and see movement details for azimuth, elevation, latitude, longitude, range, height, and movement on the map or in text.







IsCatalogInMostPopularTable: catalog: 48955, numindb: 14
Update: records affected: 1



GetName: 48955 ASTROCAST-0203

Hit Count: updated at: Sun, 26 Sep 2021 16:43:53 GMT